Vorticity
4 3 9 15 19 19 12 7 6 8 9 2 6 9 16 14 5 5 6 2 4 7 10 6 8 8 16 3 5 8 3 0 35 -8 10 3 15 -0 7 4 6 8 6 5 7
7 15 14 12 22 26 27 26 13 8 13 6 5 8 6 8 14 8 3 2 5 6 7 12 6 10 8 8 6 7 6 -24 -6 17 0 6 13 2 4 4 6 8 8 11 5
12 11 11 22 39 32 31 37 38 22 13 17 15 7 8 9 7 5 6 6 10 5 6 9 9 7 11 11 5 8 12 10 7 8 1 14 -11 8 5 5 5 5 6 6 5
13 7 13 33 34 32 29 29 15 53 52 16 8 13 24 8 7 5 9 4 4 7 7 7 11 6 11 8 10 3 5 5 7 3 25 0 10 3 9 8 5 3 0 4 6
6 9 20 40 22 28 18 16 17 24 15 37 47 36 23 24 17 8 6 4 8 4 5 6 8 11 7 13 11 5 2 6 6 3 16 7 -0 12 8 7 6 5 7 5 6
8 11 24 45 20 14 17 30 16 17 24 23 11 15 39 21 19 18 6 6 5 8 3 8 6 5 8 13 11 10 3 4 11 5 3 32 -9 8 11 8 7 5 5 5 4
6 13 34 43 25 10 11 -10 -5 7 13 22 10 19 19 36 24 28 19 12 0 2 6 6 7 8 7 8 11 11 11 -2 8 6 7 -3 18 7 6 4 10 6 7 5 5
5 13 28 37 33 16 12 8 5 3 15 17 9 6 4 14 25 36 24 12 8 2 1 3 7 8 5 11 12 7 7 8 6 0 10 4 4 11 12 2 10 9 6 6 5
8 12 25 44 42 17 26 -6 14 15 17 25 15 28 12 12 37 27 30 17 10 -1 10 10 8 7 8 6 9 19 10 10 1 13 3 10 3 6 13 9 1 6 9 8 6
9 14 19 21 54 36 14 17 9 23 11 16 22 5 13 12 25 29 34 28 23 13 -1 9 13 2 11 8 7 -0 25 11 11 -0 9 2 18 4 9 12 3 2 5 6 8
10 12 10 7 -12 -6 56 38 20 12 13 11 16 4 18 27 50 27 31 18 18 21 4 -10 17 4 6 6 17 3 24 4 15 10 9 11 2 4 2 14 14 13 -0 4 1
8 10 18 11 16 -5 26 23 34 35 33 20 35 41 42 53 17 3 13 21 4 1 11 38 32 15 5 10 8 6 24 3 13 4 10 11 10 12 3 1 4 5 7 9 5
1 12 20 22 23 25 25 26 31 35 52 23 20 25 50 -22 -5 7 30 13 25 -42 32 15 11 12 2 8 15 19 10 5 8 6 8 8 13 21 11 2 -0 9 9 8 6
7 4 11 18 27 23 20 34 14 -5 -21 -16 -6 22 7 14 -2 15 -4 36 23 8 54 13 -14 3 16 -1 9 16 13 10 11 9 9 4 7 7 21 15 7 9 8 11 14
11 15 10 14 19 -0 12 -5 -7 -3 1 15 42 32 28 -4 -3 6 5 15 4 7 5 28 13 6 -2 12 18 15 11 9 13 7 6 6 3 10 2 14 6 9 8 8 8
18 -4 9 10 12 19 24 8 14 -3 11 22 -9 -2 26 22 21 3 -13 5 -2 14 9 10 1 4 35 29 -7 11 21 12 8 13 6 5 2 6 5 7 9 8 3 7 9
18 7 -18 15 -0 -4 -8 13 4 -6 -12 8 24 16 -5 3 13 38 17 11 12 11 9 10 11 16 9 16 8 1 23 14 12 10 6 5 5 5 6 9 2 2 6 4 -0
12 10 5 5 10 5 8 4 4 -4 5 3 23 -29 18 21 3 2 18 7 11 26 9 6 5 21 -3 -5 8 -3 6 16 10 12 9 4 5 -0 7 7 6 10 5 6 8
12 11 2 7 14 4 -2 2 2 11 8 9 9 9 1 -7 -4 -4 39 17 10 23 6 -4 -4 32 8 4 -3 18 12 26 9 15 12 9 7 6 9 6 7 4 8 8 6
10 10 10 11 3 6 4 4 -2 -8 0 4 11 3 9 16 6 2 8 13 19 13 26 5 32 28 11 11 8 7 10 15 17 9 17 13 9 8 1 2 -6 -8 -1 9 7
7 13 10 9 14 4 -2 -0 5 11 19 13 3 11 11 10 7 2 6 11 13 1 11 4 7 6 20 16 10 13 2 17 18 24 9 10 18 17 18 16 14 15 16 5 2
10 8 8 13 7 13 6 2 3 6 11 9 8 5 7 8 10 9 7 2 4 6 5 9 3 7 11 25 2 9 22 5 6 2 18 11 16 12 7 9 17 17 18 16 14
18 10 9 10 17 8 7 3 -1 8 8 6 1 7 8 6 10 10 8 8 7 6 6 8 12 8 3 10 17 14 9 14 6 8 21 15 7 12 11 15 10 12 15 15 16
21 16 10 12 6 12 5 6 7 11 10 6 8 6 4 5 5 9 11 8 10 12 9 6 9 12 7 8 5 10 7 7 11 6 5 1 6 18 17 9 13 10 11 11 11
3 20 15 8 8 3 9 8 7 11 5 4 5 5 7 9 8 8 7 10 11 8 9 9 12 17 11 8 7 4 6 8 10 18 13 7 5 -1 1 6 11 10 10 10 10
3 9 25 8 12 11 1 4 11 9 6 6 8 8 6 5 5 7 10 6 1 11 16 15 11 12 14 13 8 10 7 8 11 10 20 12 9 11 10 15 11 8 10 10 9
15 5 9 23 10 14 9 1 1 8 11 8 7 10 12 16 12 11 10 9 3 7 8 8 8 9 11 10 14 15 16 14 13 13 10 12 11 13 16 12 10 9 9 9 8
Height
5653 5644 5634 5623 5614 5607 5602 5598 5598 5599 5601 5605 5609 5614 5621 5630 5639 5647 5656 5665 5670 5679 5685 5692 5701 5708 5714 5722 5730 5735 5740 5751 5762 5770 5781 5786 5789 5797 5801 5808 5812 5819 5818 5828 5834
5642 5630 5616 5603 5592 5582 5574 5572 5573 5575 5579 5585 5591 5597 5605 5615 5624 5635 5646 5655 5662 5671 5678 5685 5694 5700 5707 5714 5718 5729 5738 5750 5761 5767 5770 5776 5777 5788 5795 5802 5809 5813 5818 5824 5830
5628 5615 5600 5585 5569 5557 5552 5549 5550 5554 5558 5564 5572 5579 5588 5599 5611 5623 5632 5645 5654 5662 5669 5678 5684 5690 5700 5706 5713 5724 5736 5750 5752 5749 5759 5769 5773 5779 5788 5796 5802 5807 5811 5818 5825
5618 5602 5584 5567 5553 5544 5539 5538 5536 5538 5541 5546 5554 5563 5572 5583 5600 5609 5622 5633 5644 5652 5661 5670 5679 5686 5694 5703 5712 5719 5731 5734 5738 5744 5755 5763 5768 5780 5784 5790 5794 5798 5801 5814 5819
5610 5592 5571 5555 5544 5538 5535 5532 5532 5532 5533 5535 5540 5548 5558 5570 5586 5593 5608 5619 5633 5642 5654 5664 5674 5681 5689 5701 5706 5714 5722 5724 5730 5742 5750 5757 5765 5772 5777 5781 5786 5794 5803 5809 5812
5604 5585 5564 5548 5540 5536 5532 5530 5530 5529 5529 5531 5534 5539 5546 5558 5563 5577 5596 5610 5624 5636 5648 5657 5667 5676 5682 5690 5697 5708 5710 5717 5722 5736 5744 5752 5758 5760 5772 5773 5782 5791 5797 5802 5806
5599 5580 5560 5544 5537 5533 5531 5529 5528 5527 5527 5528 5531 5534 5540 5543 5552 5571 5587 5602 5616 5631 5642 5652 5660 5668 5677 5685 5693 5698 5703 5709 5719 5732 5738 5745 5748 5757 5766 5769 5778 5786 5791 5796 5802
5596 5578 5559 5542 5534 5531 5529 5528 5527 5525 5524 5525 5527 5531 5535 5538 5547 5559 5576 5593 5611 5625 5636 5645 5652 5662 5672 5679 5687 5692 5699 5703 5715 5724 5731 5739 5748 5753 5760 5765 5773 5779 5785 5791 5796
5597 5579 5562 5544 5534 5531 5529 5527 5525 5523 5522 5522 5524 5528 5532 5537 5542 5551 5569 5588 5604 5620 5630 5638 5649 5661 5668 5676 5682 5685 5692 5701 5712 5719 5724 5734 5742 5746 5753 5759 5766 5773 5779 5785 5792
5601 5584 5569 5553 5539 5532 5527 5525 5523 5522 5522 5522 5523 5529 5531 5533 5536 5547 5564 5582 5600 5615 5625 5634 5645 5655 5662 5669 5679 5688 5693 5700 5707 5716 5720 5729 5738 5739 5748 5753 5760 5766 5773 5780 5786
5606 5592 5578 5563 5549 5537 5526 5522 5524 5524 5523 5523 5524 5527 5528 5531 5538 5553 5567 5583 5598 5613 5623 5633 5641 5653 5665 5672 5678 5683 5686 5693 5701 5707 5713 5723 5729 5735 5742 5749 5755 5760 5766 5772 5779
5612 5598 5584 5571 5559 5547 5536 5531 5527 5528 5528 5527 5529 5529 5530 5533 5546 5559 5576 5589 5602 5616 5620 5632 5644 5653 5660 5668 5673 5678 5680 5689 5694 5700 5711 5716 5724 5729 5735 5744 5750 5754 5760 5766 5772
5619 5608 5594 5581 5570 5558 5549 5543 5538 5538 5537 5539 5540 5542 5546 5550 5557 5570 5582 5596 5608 5611 5623 5635 5645 5650 5658 5664 5671 5674 5678 5685 5690 5698 5706 5712 5716 5723 5729 5738 5745 5751 5755 5760 5765
5626 5616 5605 5593 5587 5576 5567 5561 5558 5556 5551 5555 5557 5563 5567 5567 5571 5577 5588 5601 5610 5621 5621 5631 5642 5650 5656 5663 5668 5672 5676 5681 5686 5696 5702 5707 5712 5717 5723 5731 5738 5744 5749 5755 5760
5634 5625 5616 5605 5600 5595 5588 5580 5575 5572 5568 5571 5569 5570 5577 5580 5584 5591 5597 5608 5616 5620 5627 5635 5645 5649 5653 5659 5664 5669 5671 5677 5686 5690 5694 5702 5708 5714 5720 5726 5733 5739 5744 5749 5753
5642 5634 5625 5618 5612 5609 5605 5596 5592 5588 5581 5586 5587 5588 5590 5592 5597 5600 5605 5611 5619 5624 5628 5635 5641 5647 5650 5656 5659 5665 5668 5675 5680 5683 5691 5698 5705 5709 5717 5724 5729 5734 5739 5742 5746
5645 5641 5635 5629 5624 5618 5618 5615 5612 5602 5599 5600 5599 5600 5602 5603 5604 5609 5613 5616 5621 5625 5631 5636 5641 5645 5648 5652 5656 5661 5664 5670 5675 5679 5687 5694 5699 5705 5710 5718 5724 5728 5732 5736 5739
5649 5645 5642 5637 5632 5627 5624 5625 5621 5614 5612 5611 5610 5608 5610 5611 5611 5614 5618 5622 5625 5629 5634 5636 5640 5644 5647 5652 5658 5659 5663 5666 5671 5677 5685 5689 5694 5699 5703 5711 5718 5722 5726 5728 5732
5652 5648 5644 5641 5637 5634 5631 5628 5627 5623 5621 5618 5619 5617 5617 5618 5620 5620 5622 5626 5627 5630 5634 5636 5639 5642 5646 5651 5655 5657 5659 5664 5670 5674 5680 5684 5690 5695 5698 5705 5711 5715 5718 5722 5725
5654 5649 5645 5642 5639 5637 5635 5631 5631 5628 5625 5623 5623 5622 5622 5623 5625 5625 5627 5628 5629 5631 5634 5638 5638 5640 5644 5648 5652 5655 5659 5661 5665 5670 5675 5679 5684 5690 5695 5699 5704 5708 5712 5715 5718
5654 5651 5647 5642 5640 5638 5636 5634 5631 5631 5629 5628 5626 5626 5625 5625 5626 5627 5629 5631 5631 5633 5636 5637 5640 5643 5644 5646 5649 5652 5656 5659 5663 5668 5671 5673 5678 5683 5688 5691 5695 5699 5703 5707 5710
5653 5651 5646 5643 5641 5637 5635 5635 5633 5631 5630 5629 5629 5628 5627 5627 5627 5628 5630 5631 5632 5633 5636 5637 5639 5641 5644 5645 5648 5651 5654 5658 5661 5665 5667 5669 5674 5678 5683 5686 5689 5692 5694 5697 5701
5651 5647 5645 5643 5637 5636 5635 5634 5633 5632 5630 5630 5629 5629 5629 5629 5629 5629 5629 5631 5632 5633 5635 5637 5638 5640 5641 5645 5646 5649 5652 5655 5659 5662 5664 5667 5668 5674 5676 5679 5681 5685 5687 5690 5692
5647 5644 5642 5641 5639 5635 5633 5632 5632 5631 5631 5629 5629 5628 5628 5628 5628 5629 5630 5631 5631 5631 5633 5634 5635 5637 5640 5643 5645 5647 5649 5652 5656 5658 5662 5663 5665 5668 5672 5674 5677 5680 5682 5684 5687
5645 5641 5638 5638 5638 5634 5632 5629 5629 5629 5629 5628 5628 5627 5626 5626 5626 5626 5626 5626 5627 5628 5629 5630 5632 5635 5637 5639 5641 5643 5645 5648 5652 5655 5655 5659 5661 5663 5667 5670 5673 5674 5676 5679 5681
5638 5634 5632 5630 5631 5631 5629 5627 5626 5626 5626 5626 5625 5625 5624 5624 5623 5624 5624 5625 5626 5627 5627 5629 5631 5632 5633 5635 5637 5640 5642 5643 5647 5648 5652 5655 5656 5660 5664 5667 5668 5670 5672 5675 5677
5632 5631 5626 5623 5620 5621 5623 5623 5621 5621 5622 5622 5621 5621 5621 5621 5620 5620 5620 5621 5623 5623 5624 5625 5627 5628 5631 5631 5633 5636 5637 5639 5641 5643 5646 5649 5654 5656 5660 5662 5663 5665 5666 5668 5669